Time,TemperatureF,DewpointF,PressureIn,WindDirection,WindDirectionDegrees,WindSpeedMPH,WindSpeedGustMPH,Humidity,HourlyPrecipIn,Conditions,Clouds,dailyrainin,SoftwareType,DateUTC
2013-01-04 00:00:00,26.9,19.4,30.04,WSW,244,1.0,6.0,73,0.00,,---,0.00,VWS V14.01,2013-01-04 05:00:00,
2013-01-04 00:02:00,27.0,19.5,30.04,WSW,240,5.0,5.0,73,0.00,,---,0.00,VWS V14.01,2013-01-04 05:02:00,
2013-01-04 00:03:00,27.0,19.5,30.04,WSW,237,5.0,6.0,73,0.00,,---,0.00,VWS V14.01,2013-01-04 05:03:00,
2013-01-04 00:08:00,27.1,19.6,30.03,SW,236,7.0,8.0,73,0.00,,---,0.00,VWS V14.01,2013-01-04 05:08:00,
2013-01-04 00:14:00,27.4,20.2,30.03,WSW,243,3.0,8.0,74,0.00,,---,0.00,VWS V14.01,2013-01-04 05:14:00,
2013-01-04 00:19:00,27.6,20.1,30.03,WSW,240,2.0,8.0,73,0.00,,---,0.00,VWS V14.01,2013-01-04 05:19:00,
2013-01-04 00:24:00,27.7,20.2,30.03,SW,229,1.0,8.0,73,0.00,,---,0.00,VWS V14.01,2013-01-04 05:24:00,
2013-01-04 00:29:00,27.7,20.5,30.03,SW,232,7.0,10.0,74,0.00,,---,0.00,VWS V14.01,2013-01-04 05:29:00,
2013-01-04 00:34:00,27.7,20.5,30.02,SW,225,0.0,6.0,74,0.00,,---,0.00,VWS V14.01,2013-01-04 05:34:00,
2013-01-04 00:39:00,27.7,20.5,30.02,SW,236,3.0,9.0,74,0.00,,---,0.00,VWS V14.01,2013-01-04 05:39:00,
2013-01-04 00:44:00,27.7,20.5,30.02,WSW,241,4.0,9.0,74,0.00,,---,0.00,VWS V14.01,2013-01-04 05:44:00,
2013-01-04 00:49:00,27.8,20.6,30.02,SW,236,3.0,9.0,74,0.00,,---,0.00,VWS V14.01,2013-01-04 05:49:00,
2013-01-04 00:54:00,27.8,20.9,30.02,West,261,0.0,9.0,75,0.00,,---,0.00,VWS V14.01,2013-01-04 05:54:00,
2013-01-04 00:59:00,27.7,20.8,30.01,WSW,248,0.0,9.0,75,0.00,,---,0.00,VWS V14.01,2013-01-04 05:59:00,
2013-01-04 01:04:00,27.7,20.8,30.01,WSW,247,0.0,6.0,75,0.00,,---,0.00,VWS V14.01,2013-01-04 06:04:00,
2013-01-04 01:09:00,27.7,20.8,30.01,WSW,251,1.0,6.0,75,0.00,,---,0.00,VWS V14.01,2013-01-04 06:09:00,
2013-01-04 01:14:00,27.7,21.1,30.01,WSW,247,0.0,6.0,76,0.00,,---,0.00,VWS V14.01,2013-01-04 06:14:00,
2013-01-04 01:19:00,27.7,21.1,30.01,WSW,247,0.0,6.0,76,0.00,,---,0.00,VWS V14.01,2013-01-04 06:19:00,
2013-01-04 01:24:00,27.7,21.4,30.01,SW,232,0.0,6.0,77,0.00,,---,0.00,VWS V14.01,2013-01-04 06:24:00,
2013-01-04 01:29:00,27.7,21.4,30.01,West,263,3.0,6.0,77,0.00,,---,0.00,VWS V14.01,2013-01-04 06:29:00,
2013-01-04 01:34:00,27.8,21.5,30.01,WSW,254,2.0,5.0,77,0.00,,---,0.00,VWS V14.01,2013-01-04 06:34:00,
2013-01-04 01:39:00,27.9,21.6,30.01,SW,232,3.0,5.0,77,0.00,,---,0.00,VWS V14.01,2013-01-04 06:39:00,
2013-01-04 01:44:00,28.0,21.4,30.01,WSW,251,0.0,9.0,76,0.00,,---,0.00,VWS V14.01,2013-01-04 06:44:00,
2013-01-04 01:49:00,28.2,21.6,30.01,WSW,243,3.0,9.0,76,0.00,,---,0.00,VWS V14.01,2013-01-04 06:49:00,
2013-01-04 01:54:00,28.3,21.4,30.01,WSW,251,3.0,9.0,75,0.00,,---,0.00,VWS V14.01,2013-01-04 06:54:00,
2013-01-04 01:59:00,28.3,21.4,30.01,WSW,238,1.0,9.0,75,0.00,,---,0.00,VWS V14.01,2013-01-04 06:59:00,
2013-01-04 02:04:00,28.4,21.5,30.01,WSW,251,4.0,5.0,75,0.00,,---,0.00,VWS V14.01,2013-01-04 07:04:00,
2013-01-04 02:09:00,28.4,21.5,30.01,WSW,243,5.0,7.0,75,0.00,,---,0.00,VWS V14.01,2013-01-04 07:09:00,
2013-01-04 02:14:00,28.4,21.5,30.01,WSW,246,0.0,9.0,75,0.00,,---,0.00,VWS V14.01,2013-01-04 07:14:00,
2013-01-04 02:19:00,28.4,21.5,30.01,West,268,2.0,9.0,75,0.00,,---,0.00,VWS V14.01,2013-01-04 07:19:00,
2013-01-04 02:24:00,28.4,21.8,30.01,WSW,254,1.0,9.0,76,0.00,,---,0.00,VWS V14.01,2013-01-04 07:24:00,
2013-01-04 02:29:00,28.3,21.7,30.01,West,264,2.0,9.0,76,0.00,,---,0.00,VWS V14.01,2013-01-04 07:29:00,
2013-01-04 02:34:00,28.3,21.7,30.02,NW,305,2.0,6.0,76,0.00,,---,0.00,VWS V14.01,2013-01-04 07:34:00,
2013-01-04 02:39:00,28.3,21.7,30.02,SW,228,0.0,7.0,76,0.00,,---,0.00,VWS V14.01,2013-01-04 07:39:00,
2013-01-04 02:44:00,28.3,22.0,30.01,SW,234,5.0,7.0,77,0.00,,---,0.00,VWS V14.01,2013-01-04 07:44:00,
2013-01-04 02:49:00,28.3,22.0,30.02,WSW,249,4.0,9.0,77,0.00,,---,0.00,VWS V14.01,2013-01-04 07:49:00,
2013-01-04 02:54:00,28.3,22.0,30.01,WSW,242,4.0,9.0,77,0.00,,---,0.00,VWS V14.01,2013-01-04 07:54:00,
2013-01-04 02:58:00,28.3,22.0,30.01,WSW,240,3.0,9.0,77,0.00,,---,0.00,VWS V14.01,2013-01-04 07:58:00,
2013-01-04 03:04:00,28.3,22.3,30.01,WSW,250,4.0,5.0,78,0.00,,---,0.00,VWS V14.01,2013-01-04 08:04:00,
2013-01-04 03:09:00,28.3,22.3,30.01,WSW,237,3.0,7.0,78,0.00,,---,0.00,VWS V14.01,2013-01-04 08:09:00,
2013-01-04 03:14:00,28.3,22.0,30.01,WSW,258,0.0,7.0,77,0.00,,---,0.00,VWS V14.01,2013-01-04 08:14:00,
2013-01-04 03:18:00,28.2,22.2,30.01,SW,224,0.0,7.0,78,0.00,,---,0.00,VWS V14.01,2013-01-04 08:18:00,
2013-01-04 03:23:00,28.1,22.1,30.00,WSW,246,4.0,7.0,78,0.00,,---,0.00,VWS V14.01,2013-01-04 08:23:00,
2013-01-04 03:28:00,28.0,22.0,30.00,WSW,240,0.0,7.0,78,0.00,,---,0.00,VWS V14.01,2013-01-04 08:28:00,
2013-01-04 03:33:00,27.9,21.9,30.00,WSW,251,1.0,4.0,78,0.00,,---,0.00,VWS V14.01,2013-01-04 08:33:00,
2013-01-04 03:38:00,27.9,21.9,30.00,WSW,253,0.0,6.0,78,0.00,,---,0.00,VWS V14.01,2013-01-04 08:38:00,
2013-01-04 03:43:00,27.8,22.1,30.00,WSW,242,0.0,6.0,79,0.00,,---,0.00,VWS V14.01,2013-01-04 08:43:00,
2013-01-04 03:48:00,27.7,22.0,30.00,SW,233,3.0,7.0,79,0.00,,---,0.00,VWS V14.01,2013-01-04 08:48:00,
2013-01-04 03:53:00,27.7,22.0,30.00,SW,228,1.0,7.0,79,0.00,,---,0.00,VWS V14.01,2013-01-04 08:53:00,
2013-01-04 03:58:00,27.8,22.1,30.00,SW,235,5.0,7.0,79,0.00,,---,0.00,VWS V14.01,2013-01-04 08:58:00,
2013-01-04 04:03:00,27.8,22.4,30.00,WSW,239,6.0,8.0,80,0.00,,---,0.00,VWS V14.01,2013-01-04 09:03:00,
2013-01-04 04:08:00,27.9,22.5,30.00,SW,228,7.0,8.0,80,0.00,,---,0.00,VWS V14.01,2013-01-04 09:08:00,
2013-01-04 04:13:00,28.0,22.6,30.00,SW,233,6.0,8.0,80,0.00,,---,0.00,VWS V14.01,2013-01-04 09:13:00,
2013-01-04 04:18:00,28.2,22.8,30.00,SW,232,3.0,8.0,80,0.00,,---,0.00,VWS V14.01,2013-01-04 09:18:00,
2013-01-04 04:23:00,28.4,23.3,30.00,SW,236,5.0,11.0,81,0.00,,---,0.00,VWS V14.01,2013-01-04 09:23:00,
2013-01-04 04:28:00,28.5,23.4,30.00,SW,231,9.0,11.0,81,0.00,,---,0.00,VWS V14.01,2013-01-04 09:28:00,
2013-01-04 04:33:00,28.7,23.6,30.00,SW,233,9.0,9.0,81,0.00,,---,0.00,VWS V14.01,2013-01-04 09:33:00,
2013-01-04 04:38:00,28.7,23.6,30.00,SW,233,4.0,11.0,81,0.00,,---,0.00,VWS V14.01,2013-01-04 09:38:00,
2013-01-04 04:43:00,28.9,23.8,30.00,SW,230,10.0,11.0,81,0.00,,---,0.00,VWS V14.01,2013-01-04 09:43:00,
2013-01-04 04:48:00,29.1,24.0,30.00,SW,234,4.0,12.0,81,0.00,,---,0.00,VWS V14.01,2013-01-04 09:48:00,
2013-01-04 04:53:00,29.2,24.1,30.00,WSW,238,4.0,12.0,81,0.00,,---,0.00,VWS V14.01,2013-01-04 09:53:00,
2013-01-04 04:58:00,29.3,23.9,30.01,West,268,4.0,15.0,80,0.00,,---,0.00,VWS V14.01,2013-01-04 09:58:00,
2013-01-04 05:03:00,29.3,23.9,30.01,SW,236,1.0,10.0,80,0.00,,---,0.00,VWS V14.01,2013-01-04 10:03:00,
2013-01-04 05:08:00,29.3,23.9,30.01,SW,228,7.0,12.0,80,0.00,,---,0.00,VWS V14.01,2013-01-04 10:08:00,
2013-01-04 05:13:00,29.3,23.9,30.01,SW,231,5.0,12.0,80,0.00,,---,0.00,VWS V14.01,2013-01-04 10:13:00,
2013-01-04 05:18:00,29.3,23.9,30.01,WSW,242,9.0,13.0,80,0.00,,---,0.00,VWS V14.01,2013-01-04 10:18:00,
2013-01-04 05:23:00,29.2,23.8,30.00,WSW,237,2.0,15.0,80,0.00,,---,0.00,VWS V14.01,2013-01-04 10:23:00,
2013-01-04 05:28:00,29.1,23.7,30.01,SW,230,2.0,15.0,80,0.00,,---,0.00,VWS V14.01,2013-01-04 10:28:00,
2013-01-04 05:33:00,29.0,23.6,30.01,West,269,6.0,9.0,80,0.00,,---,0.00,VWS V14.01,2013-01-04 10:33:00,
2013-01-04 05:38:00,29.0,23.6,30.00,WSW,251,3.0,9.0,80,0.00,,---,0.00,VWS V14.01,2013-01-04 10:38:00,
2013-01-04 05:43:00,28.9,23.5,30.00,WSW,246,3.0,9.0,80,0.00,,---,0.00,VWS V14.01,2013-01-04 10:43:00,
2013-01-04 05:48:00,29.0,23.9,30.01,WSW,246,1.0,9.0,81,0.00,,---,0.00,VWS V14.01,2013-01-04 10:48:00,
2013-01-04 05:53:00,28.9,23.8,30.00,WSW,240,2.0,10.0,81,0.00,,---,0.00,VWS V14.01,2013-01-04 10:53:00,
2013-01-04 05:58:00,28.8,23.7,30.00,SW,230,8.0,11.0,81,0.00,,---,0.00,VWS V14.01,2013-01-04 10:58:00,
2013-01-04 06:03:00,28.9,23.8,30.00,SW,234,4.0,9.0,81,0.00,,---,0.00,VWS V14.01,2013-01-04 11:03:00,
2013-01-04 06:08:00,29.0,23.9,30.00,WSW,237,7.0,9.0,81,0.00,,---,0.00,VWS V14.01,2013-01-04 11:08:00,
2013-01-04 06:13:00,29.1,24.0,30.00,WSW,251,0.0,10.0,81,0.00,,---,0.00,VWS V14.01,2013-01-04 11:13:00,
2013-01-04 06:18:00,29.2,24.1,30.00,West,275,4.0,10.0,81,0.00,,---,0.00,VWS V14.01,2013-01-04 11:18:00,
2013-01-04 06:23:00,29.3,24.2,30.01,West,272,0.0,10.0,81,0.00,,---,0.00,VWS V14.01,2013-01-04 11:23:00,
2013-01-04 06:28:00,29.3,24.2,30.01,West,265,2.0,10.0,81,0.00,,---,0.00,VWS V14.01,2013-01-04 11:28:00,
2013-01-04 06:33:00,29.2,24.1,30.01,WNW,290,0.0,6.0,81,0.00,,---,0.00,VWS V14.01,2013-01-04 11:33:00,
2013-01-04 06:38:00,29.2,24.1,30.01,WSW,251,0.0,6.0,81,0.00,,---,0.00,VWS V14.01,2013-01-04 11:38:00,
2013-01-04 06:43:00,29.2,24.1,30.00,SW,236,4.0,8.0,81,0.00,,---,0.00,VWS V14.01,2013-01-04 11:43:00,
2013-01-04 06:48:00,29.1,24.0,30.00,WSW,241,0.0,8.0,81,0.00,,---,0.00,VWS V14.01,2013-01-04 11:48:00,
2013-01-04 06:53:00,29.1,24.0,30.01,West,261,3.0,8.0,81,0.00,,---,0.00,VWS V14.01,2013-01-04 11:53:00,
2013-01-04 06:58:00,29.0,23.9,30.01,WSW,240,2.0,8.0,81,0.00,,---,0.00,VWS V14.01,2013-01-04 11:58:00,
2013-01-04 07:03:00,28.9,23.8,30.00,WSW,251,2.0,3.0,81,0.00,,---,0.00,VWS V14.01,2013-01-04 12:03:00,
2013-01-04 07:08:00,28.8,23.7,30.01,WSW,240,0.0,10.0,81,0.00,,---,0.00,VWS V14.01,2013-01-04 12:08:00,
2013-01-04 07:13:00,28.8,23.7,30.01,WSW,245,2.0,10.0,81,0.00,,---,0.00,VWS V14.01,2013-01-04 12:13:00,
2013-01-04 07:18:00,28.8,24.0,30.01,WSW,252,0.0,10.0,82,0.00,,---,0.00,VWS V14.01,2013-01-04 12:18:00,
2013-01-04 07:23:00,28.8,24.0,30.01,WSW,238,5.0,10.0,82,0.00,,---,0.00,VWS V14.01,2013-01-04 12:23:00,
2013-01-04 07:28:00,28.8,24.0,30.01,WSW,242,0.0,10.0,82,0.00,,---,0.00,VWS V14.01,2013-01-04 12:28:00,
2013-01-04 07:33:00,28.8,24.0,30.01,SW,231,3.0,5.0,82,0.00,,---,0.00,VWS V14.01,2013-01-04 12:33:00,
2013-01-04 07:38:00,28.8,24.0,30.01,WSW,253,0.0,5.0,82,0.00,,---,0.00,VWS V14.01,2013-01-04 12:38:00,
2013-01-04 07:43:00,28.9,24.1,30.01,SW,236,0.0,7.0,82,0.00,,---,0.00,VWS V14.01,2013-01-04 12:43:00,
2013-01-04 07:48:00,29.0,24.2,30.02,WNW,299,5.0,7.0,82,0.00,,---,0.00,VWS V14.01,2013-01-04 12:48:00,
2013-01-04 07:53:00,29.0,24.2,30.02,NW,305,1.0,7.0,82,0.00,,---,0.00,VWS V14.01,2013-01-04 12:53:00,
2013-01-04 07:58:00,29.1,24.3,30.02,NW,307,7.0,7.0,82,0.00,,---,0.00,VWS V14.01,2013-01-04 12:58:00,
2013-01-04 08:03:00,29.3,24.5,30.02,West,259,0.0,7.0,82,0.00,,---,0.00,VWS V14.01,2013-01-04 13:03:00,
2013-01-04 08:08:00,29.4,24.6,30.02,SW,234,0.0,7.0,82,0.00,,---,0.00,VWS V14.01,2013-01-04 13:08:00,
2013-01-04 08:13:00,29.5,25.0,30.02,WSW,247,0.0,7.0,83,0.00,,---,0.00,VWS V14.01,2013-01-04 13:13:00,
2013-01-04 08:18:00,29.7,24.9,30.02,West,271,0.0,7.0,82,0.00,,---,0.00,VWS V14.01,2013-01-04 13:18:00,
2013-01-04 08:23:00,29.9,25.1,30.02,SW,232,0.0,7.0,82,0.00,,---,0.00,VWS V14.01,2013-01-04 13:23:00,
2013-01-04 08:28:00,30.2,25.4,30.02,West,270,0.0,7.0,82,0.00,,---,0.00,VWS V14.01,2013-01-04 13:28:00,
2013-01-04 08:33:00,30.6,25.8,30.02,SW,224,0.0,5.0,82,0.00,,---,0.00,VWS V14.01,2013-01-04 13:33:00,
2013-01-04 08:38:00,30.9,25.8,30.02,WSW,238,0.0,7.0,81,0.00,,---,0.00,VWS V14.01,2013-01-04 13:38:00,
2013-01-04 08:43:00,31.2,26.1,30.02,WSW,245,0.0,7.0,81,0.00,,---,0.00,VWS V14.01,2013-01-04 13:43:00,
2013-01-04 08:48:00,31.5,26.0,30.02,SW,223,6.0,7.0,80,0.00,,---,0.00,VWS V14.01,2013-01-04 13:48:00,
2013-01-04 08:53:00,31.8,26.4,30.02,WSW,250,0.0,7.0,80,0.00,,---,0.00,VWS V14.01,2013-01-04 13:53:00,
2013-01-04 08:58:00,32.1,26.6,30.02,SW,234,0.0,7.0,80,0.00,,---,0.00,VWS V14.01,2013-01-04 13:58:00,
2013-01-04 09:03:00,32.4,26.6,30.02,WSW,242,0.0,8.0,79,0.00,,---,0.00,VWS V14.01,2013-01-04 14:03:00,
2013-01-04 09:08:00,32.8,26.7,30.02,WSW,253,0.0,8.0,78,0.00,,---,0.00,VWS V14.01,2013-01-04 14:08:00,
2013-01-04 09:13:00,33.1,26.7,30.02,SW,230,0.0,9.0,77,0.00,,---,0.00,VWS V14.01,2013-01-04 14:13:00,
2013-01-04 09:18:00,33.4,27.0,30.02,SW,232,3.0,9.0,77,0.00,,---,0.00,VWS V14.01,2013-01-04 14:18:00,
2013-01-04 09:23:00,33.7,27.0,30.02,SW,235,5.0,9.0,76,0.00,,---,0.00,VWS V14.01,2013-01-04 14:23:00,
2013-01-04 09:28:00,34.0,27.2,30.02,West,271,1.0,11.0,76,0.00,,---,0.00,VWS V14.01,2013-01-04 14:28:00,
2013-01-04 09:33:00,34.3,27.5,30.02,SW,231,7.0,11.0,76,0.00,,---,0.00,VWS V14.01,2013-01-04 14:33:00,
2013-01-04 09:38:00,34.4,27.3,30.02,SW,224,6.0,13.0,75,0.00,,---,0.00,VWS V14.01,2013-01-04 14:38:00,
2013-01-04 09:43:00,34.6,27.2,30.01,SSW,209,9.0,13.0,74,0.00,,---,0.00,VWS V14.01,2013-01-04 14:43:00,
2013-01-04 09:48:00,34.9,27.5,30.01,SW,234,0.0,15.0,74,0.00,,---,0.00,VWS V14.01,2013-01-04 14:48:00,
2013-01-04 09:53:00,35.2,27.8,30.01,SSW,207,10.0,15.0,74,0.00,,---,0.00,VWS V14.01,2013-01-04 14:53:00,
2013-01-04 09:58:00,35.5,27.4,30.01,WSW,238,2.0,16.0,72,0.00,,---,0.00,VWS V14.01,2013-01-04 14:58:00,
2013-01-04 10:03:00,35.6,27.5,30.01,WSW,251,6.0,12.0,72,0.00,,---,0.00,VWS V14.01,2013-01-04 15:03:00,
2013-01-04 10:08:00,35.7,27.2,30.00,SW,234,12.0,12.0,71,0.00,,---,0.00,VWS V14.01,2013-01-04 15:08:00,
2013-01-04 10:13:00,35.9,27.4,30.01,SW,236,4.0,13.0,71,0.00,,---,0.00,VWS V14.01,2013-01-04 15:13:00,
2013-01-04 10:18:00,36.2,27.4,30.00,WSW,243,2.0,17.0,70,0.00,,---,0.00,VWS V14.01,2013-01-04 15:18:00,
2013-01-04 10:23:00,36.2,27.4,30.00,WSW,248,6.0,17.0,70,0.00,,---,0.00,VWS V14.01,2013-01-04 15:23:00,
2013-01-04 10:28:00,36.3,27.1,30.00,WSW,253,0.0,17.0,69,0.00,,---,0.00,VWS V14.01,2013-01-04 15:28:00,
2013-01-04 10:33:00,36.4,27.2,29.99,WSW,247,11.0,11.0,69,0.00,,---,0.00,VWS V14.01,2013-01-04 15:33:00,
2013-01-04 10:38:00,36.6,27.0,29.99,SW,232,0.0,13.0,68,0.00,,---,0.00,VWS V14.01,2013-01-04 15:38:00,
2013-01-04 10:43:00,37.0,27.1,29.99,WSW,242,6.0,13.0,67,0.00,,---,0.00,VWS V14.01,2013-01-04 15:43:00,
2013-01-04 10:48:00,37.1,26.8,29.99,WSW,247,3.0,17.0,66,0.00,,---,0.00,VWS V14.01,2013-01-04 15:48:00,
2013-01-04 10:53:00,37.2,26.5,29.98,SW,233,12.0,17.0,65,0.00,,---,0.00,VWS V14.01,2013-01-04 15:53:00,
2013-01-04 10:58:00,37.1,26.4,29.98,West,281,4.0,20.0,65,0.00,,---,0.00,VWS V14.01,2013-01-04 15:58:00,
2013-01-04 11:03:00,37.4,27.1,29.98,SW,217,10.0,10.0,66,0.00,,---,0.00,VWS V14.01,2013-01-04 16:03:00,
2013-01-04 11:08:00,37.6,27.3,29.98,SSW,213,0.0,11.0,66,0.00,,---,0.00,VWS V14.01,2013-01-04 16:08:00,
2013-01-04 11:13:00,37.7,27.0,29.97,WSW,238,9.0,13.0,65,0.00,,---,0.00,VWS V14.01,2013-01-04 16:13:00,
2013-01-04 11:18:00,37.6,26.2,29.97,WSW,251,8.0,20.0,63,0.00,,---,0.00,VWS V14.01,2013-01-04 16:18:00,
2013-01-04 11:23:00,37.7,26.6,29.97,WSW,239,8.0,20.0,64,0.00,,---,0.00,VWS V14.01,2013-01-04 16:23:00,
2013-01-04 11:28:00,37.8,26.7,29.97,WSW,246,3.0,20.0,64,0.00,,---,0.00,VWS V14.01,2013-01-04 16:28:00,
2013-01-04 11:33:00,37.9,26.8,29.96,SW,222,10.0,15.0,64,0.00,,---,0.00,VWS V14.01,2013-01-04 16:33:00,
2013-01-04 11:38:00,38.0,27.3,29.96,SW,215,11.0,15.0,65,0.00,,---,0.00,VWS V14.01,2013-01-04 16:38:00,
2013-01-04 11:43:00,38.1,27.0,29.95,SW,222,11.0,16.0,64,0.00,,---,0.00,VWS V14.01,2013-01-04 16:43:00,
2013-01-04 11:48:00,38.2,26.7,29.95,SW,231,6.0,17.0,63,0.00,,---,0.00,VWS V14.01,2013-01-04 16:48:00,
2013-01-04 11:53:00,38.2,26.7,29.95,SW,235,8.0,17.0,63,0.00,,---,0.00,VWS V14.01,2013-01-04 16:53:00,
2013-01-04 11:58:00,38.0,26.9,29.95,WSW,237,13.0,17.0,64,0.01,,---,0.01,VWS V14.01,2013-01-04 16:58:00,
2013-01-04 12:03:00,38.1,27.0,29.95,SSW,204,11.0,17.0,64,0.01,,---,0.01,VWS V14.01,2013-01-04 17:03:00,
2013-01-04 12:08:00,38.0,26.5,29.94,SW,232,11.0,21.0,63,0.01,,---,0.01,VWS V14.01,2013-01-04 17:08:00,
2013-01-04 12:13:00,38.0,26.5,29.94,WSW,248,16.0,21.0,63,0.01,,---,0.01,VWS V14.01,2013-01-04 17:13:00,
2013-01-04 12:18:00,38.1,26.6,29.94,West,261,4.0,21.0,63,0.01,,---,0.01,VWS V14.01,2013-01-04 17:18:00,
2013-01-04 12:23:00,38.3,27.2,29.93,SW,234,10.0,21.0,64,0.01,,---,0.01,VWS V14.01,2013-01-04 17:23:00,
2013-01-04 12:28:00,38.4,26.5,29.93,SSW,209,11.0,21.0,62,0.01,,---,0.01,VWS V14.01,2013-01-04 17:28:00,
2013-01-04 12:33:00,38.4,26.5,29.92,WSW,249,0.0,16.0,62,0.01,,---,0.01,VWS V14.01,2013-01-04 17:33:00,
2013-01-04 12:38:00,38.6,26.7,29.92,WSW,238,6.0,16.0,62,0.01,,---,0.01,VWS V14.01,2013-01-04 17:38:00,
2013-01-04 12:43:00,38.9,27.0,29.91,SW,236,9.0,16.0,62,0.01,,---,0.01,VWS V14.01,2013-01-04 17:43:00,
2013-01-04 12:48:00,39.1,27.2,29.91,SW,220,13.0,16.0,62,0.01,,---,0.01,VWS V14.01,2013-01-04 17:48:00,
2013-01-04 12:53:00,39.4,27.1,29.91,WSW,238,8.0,16.0,61,0.01,,---,0.01,VWS V14.01,2013-01-04 17:53:00,
2013-01-04 12:58:00,39.6,27.3,29.90,WSW,237,7.0,16.0,61,0.01,,---,0.01,VWS V14.01,2013-01-04 17:58:00,
2013-01-04 13:03:00,39.7,27.8,29.90,SW,222,16.0,19.0,62,0.00,,---,0.01,VWS V14.01,2013-01-04 18:03:00,
2013-01-04 13:08:00,39.4,28.2,29.89,WSW,247,13.0,25.0,64,0.00,,---,0.01,VWS V14.01,2013-01-04 18:08:00,
2013-01-04 13:13:00,39.2,28.8,29.89,SW,224,15.0,25.0,66,0.00,,---,0.01,VWS V14.01,2013-01-04 18:13:00,
2013-01-04 13:18:00,39.2,29.2,29.88,SW,232,15.0,25.0,67,0.00,,---,0.01,VWS V14.01,2013-01-04 18:18:00,
2013-01-04 13:23:00,39.2,28.8,29.88,SW,234,16.0,25.0,66,0.00,,---,0.01,VWS V14.01,2013-01-04 18:23:00,
2013-01-04 13:28:00,39.1,28.7,29.88,WSW,242,14.0,25.0,66,0.00,,---,0.01,VWS V14.01,2013-01-04 18:28:00,
2013-01-04 13:33:00,39.2,28.8,29.88,SW,230,25.0,25.0,66,0.00,,---,0.01,VWS V14.01,2013-01-04 18:33:00,
2013-01-04 13:38:00,39.3,28.2,29.88,West,260,13.0,25.0,64,0.00,,---,0.01,VWS V14.01,2013-01-04 18:38:00,
2013-01-04 13:43:00,39.3,28.5,29.88,WSW,247,20.0,25.0,65,0.00,,---,0.01,VWS V14.01,2013-01-04 18:43:00,
2013-01-04 13:48:00,39.2,28.4,29.88,SSW,209,16.0,25.0,65,0.00,,---,0.01,VWS V14.01,2013-01-04 18:48:00,
2013-01-04 13:53:00,39.1,28.7,29.87,SW,231,14.0,26.0,66,0.00,,---,0.01,VWS V14.01,2013-01-04 18:53:00,
2013-01-04 13:58:00,38.9,28.1,29.87,SW,214,27.0,31.0,65,0.00,,---,0.01,VWS V14.01,2013-01-04 18:58:00,
2013-01-04 14:03:00,38.7,28.3,29.88,WSW,238,19.0,30.0,66,0.00,,---,0.01,VWS V14.01,2013-01-04 19:03:00,
2013-01-04 14:08:00,38.7,28.3,29.88,West,265,13.0,30.0,66,0.00,,---,0.01,VWS V14.01,2013-01-04 19:08:00,
2013-01-04 14:13:00,38.8,28.8,29.88,SW,230,20.0,30.0,67,0.00,,---,0.01,VWS V14.01,2013-01-04 19:13:00,
2013-01-04 14:18:00,38.6,28.6,29.88,WSW,240,14.0,30.0,67,0.00,,---,0.01,VWS V14.01,2013-01-04 19:18:00,
2013-01-04 14:23:00,38.7,28.7,29.88,East,94,12.0,30.0,67,0.00,,---,0.01,VWS V14.01,2013-01-04 19:23:00,
2013-01-04 14:28:00,38.8,29.2,29.87,South,186,15.0,30.0,68,0.00,,---,0.01,VWS V14.01,2013-01-04 19:28:00,
2013-01-04 14:33:00,39.0,29.4,29.87,WSW,237,19.0,27.0,68,0.00,,---,0.01,VWS V14.01,2013-01-04 19:33:00,
2013-01-04 14:38:00,39.0,29.0,29.88,WSW,245,14.0,31.0,67,0.00,,---,0.01,VWS V14.01,2013-01-04 19:38:00,
2013-01-04 14:43:00,39.0,29.4,29.88,SW,230,20.0,32.0,68,0.00,,---,0.01,VWS V14.01,2013-01-04 19:43:00,
2013-01-04 14:48:00,38.9,29.6,29.88,WSW,244,15.0,32.0,69,0.00,,---,0.01,VWS V14.01,2013-01-04 19:48:00,
2013-01-04 14:53:00,38.9,30.0,29.88,WSW,249,17.0,32.0,70,0.00,,---,0.01,VWS V14.01,2013-01-04 19:53:00,
2013-01-04 14:58:00,38.9,30.0,29.88,WSW,240,24.0,32.0,70,0.00,,---,0.01,VWS V14.01,2013-01-04 19:58:00,
2013-01-04 15:03:00,38.8,29.9,29.88,SW,234,19.0,30.0,70,0.00,,---,0.01,VWS V14.01,2013-01-04 20:03:00,
2013-01-04 15:08:00,38.8,30.2,29.88,East,94,23.0,30.0,71,0.00,,---,0.01,VWS V14.01,2013-01-04 20:08:00,
2013-01-04 15:13:00,38.5,29.9,29.88,East,94,18.0,34.0,71,0.00,,---,0.01,VWS V14.01,2013-01-04 20:13:00,
2013-01-04 15:18:00,38.2,30.0,29.88,East,94,26.0,34.0,72,0.00,,---,0.01,VWS V14.01,2013-01-04 20:18:00,
2013-01-04 15:23:00,38.0,30.5,29.88,SW,230,30.0,34.0,74,0.00,,---,0.01,VWS V14.01,2013-01-04 20:23:00,
2013-01-04 15:28:00,38.0,30.5,29.88,SW,232,16.0,34.0,74,0.00,,---,0.01,VWS V14.01,2013-01-04 20:28:00,
2013-01-04 15:33:00,37.9,30.4,29.88,WSW,241,8.0,27.0,74,0.00,,---,0.01,VWS V14.01,2013-01-04 20:33:00,
2013-01-04 15:38:00,37.9,30.4,29.87,WSW,245,26.0,30.0,74,0.00,,---,0.01,VWS V14.01,2013-01-04 20:38:00,
2013-01-04 15:43:00,37.8,30.3,29.88,SW,230,18.0,32.0,74,0.00,,---,0.01,VWS V14.01,2013-01-04 20:43:00,
2013-01-04 15:48:00,37.8,30.3,29.88,SW,236,12.0,32.0,74,0.00,,---,0.01,VWS V14.01,2013-01-04 20:48:00,
2013-01-04 15:53:00,37.7,30.5,29.88,SW,215,27.0,32.0,75,0.00,,---,0.01,VWS V14.01,2013-01-04 20:53:00,
2013-01-04 15:58:00,37.5,30.6,29.88,SW,215,16.0,32.0,76,0.00,,---,0.01,VWS V14.01,2013-01-04 20:58:00,
2013-01-04 16:03:00,37.5,30.6,29.88,WSW,246,19.0,24.0,76,0.00,,---,0.01,VWS V14.01,2013-01-04 21:03:00,
2013-01-04 16:08:00,37.4,30.2,29.88,East,94,21.0,25.0,75,0.00,,---,0.01,VWS V14.01,2013-01-04 21:08:00,
2013-01-04 16:13:00,37.4,30.5,29.88,SW,217,19.0,27.0,76,0.00,,---,0.01,VWS V14.01,2013-01-04 21:13:00,
2013-01-04 16:18:00,37.4,30.2,29.88,SW,229,33.0,33.0,75,0.00,,---,0.01,VWS V14.01,2013-01-04 21:18:00,
2013-01-04 16:23:00,37.3,30.4,29.88,SW,226,19.0,33.0,76,0.00,,---,0.01,VWS V14.01,2013-01-04 21:23:00,
2013-01-04 16:29:00,37.3,30.4,29.87,WSW,248,15.0,33.0,76,0.00,,---,0.01,VWS V14.01,2013-01-04 21:29:00,
2013-01-04 16:34:00,37.2,30.4,29.87,WSW,241,14.0,26.0,76,0.00,,---,0.01,VWS V14.01,2013-01-04 21:34:00,
2013-01-04 16:39:00,37.1,30.2,29.87,SW,236,9.0,26.0,76,0.00,,---,0.01,VWS V14.01,2013-01-04 21:39:00,
2013-01-04 16:44:00,37.0,30.5,29.87,SW,236,11.0,26.0,77,0.00,,---,0.01,VWS V14.01,2013-01-04 21:44:00,
2013-01-04 16:49:00,36.9,30.4,29.87,SW,234,21.0,26.0,77,0.00,,---,0.01,VWS V14.01,2013-01-04 21:49:00,
2013-01-04 16:54:00,36.9,30.0,29.87,SSW,213,17.0,26.0,76,0.00,,---,0.01,VWS V14.01,2013-01-04 21:54:00,
2013-01-04 16:59:00,36.8,30.0,29.87,WSW,251,12.0,26.0,76,0.00,,---,0.01,VWS V14.01,2013-01-04 21:59:00,
2013-01-04 17:03:00,36.8,30.3,29.87,West,261,7.0,20.0,77,0.00,,---,0.01,VWS V14.01,2013-01-04 22:03:00,
2013-01-04 17:08:00,36.8,30.0,29.87,SSW,211,13.0,21.0,76,0.00,,---,0.01,VWS V14.01,2013-01-04 22:08:00,
2013-01-04 17:13:00,36.7,30.2,29.87,WSW,246,9.0,21.0,77,0.00,,---,0.01,VWS V14.01,2013-01-04 22:13:00,
2013-01-04 17:18:00,36.6,30.1,29.87,WSW,250,10.0,21.0,77,0.00,,---,0.01,VWS V14.01,2013-01-04 22:18:00,
2013-01-04 17:23:00,36.6,30.1,29.88,WSW,244,10.0,21.0,77,0.00,,---,0.01,VWS V14.01,2013-01-04 22:23:00,
2013-01-04 17:28:00,36.6,30.1,29.88,WSW,237,20.0,21.0,77,0.00,,---,0.01,VWS V14.01,2013-01-04 22:28:00,
2013-01-04 17:33:00,36.6,29.8,29.88,SW,234,14.0,21.0,76,0.00,,---,0.01,VWS V14.01,2013-01-04 22:33:00,
2013-01-04 17:38:00,36.6,30.1,29.88,SW,228,6.0,21.0,77,0.00,,---,0.01,VWS V14.01,2013-01-04 22:38:00,
2013-01-04 17:43:00,36.5,30.0,29.89,WSW,253,9.0,21.0,77,0.00,,---,0.01,VWS V14.01,2013-01-04 22:43:00,
2013-01-04 17:48:00,36.5,29.7,29.89,West,263,8.0,21.0,76,0.00,,---,0.01,VWS V14.01,2013-01-04 22:48:00,
2013-01-04 17:53:00,36.6,29.8,29.89,WSW,241,3.0,21.0,76,0.00,,---,0.01,VWS V14.01,2013-01-04 22:53:00,
2013-01-04 17:58:00,36.5,29.7,29.89,SW,235,6.0,21.0,76,0.00,,---,0.01,VWS V14.01,2013-01-04 22:58:00,
2013-01-04 18:03:00,36.5,29.7,29.89,SW,224,12.0,16.0,76,0.00,,---,0.01,VWS V14.01,2013-01-04 23:03:00,
2013-01-04 18:08:00,36.5,29.3,29.89,SW,225,9.0,16.0,75,0.00,,---,0.01,VWS V14.01,2013-01-04 23:08:00,
2013-01-04 18:13:00,36.5,29.7,29.89,WSW,257,4.0,16.0,76,0.00,,---,0.01,VWS V14.01,2013-01-04 23:13:00,
2013-01-04 18:18:00,36.5,29.3,29.89,WSW,237,4.0,20.0,75,0.00,,---,0.01,VWS V14.01,2013-01-04 23:18:00,
2013-01-04 18:23:00,36.5,29.3,29.89,WSW,243,7.0,22.0,75,0.00,,---,0.01,VWS V14.01,2013-01-04 23:23:00,
2013-01-04 18:28:00,36.5,29.0,29.89,WSW,242,12.0,22.0,74,0.00,,---,0.01,VWS V14.01,2013-01-04 23:28:00,
2013-01-04 18:33:00,36.6,29.1,29.89,WSW,240,6.0,16.0,74,0.00,,---,0.01,VWS V14.01,2013-01-04 23:33:00,
2013-01-04 18:38:00,36.6,29.1,29.89,SW,222,12.0,17.0,74,0.00,,---,0.01,VWS V14.01,2013-01-04 23:38:00,
2013-01-04 18:43:00,36.7,28.9,29.89,WSW,247,11.0,21.0,73,0.00,,---,0.01,VWS V14.01,2013-01-04 23:43:00,
2013-01-04 18:48:00,36.8,29.3,29.90,WSW,244,5.0,21.0,74,0.00,,---,0.01,VWS V14.01,2013-01-04 23:48:00,
2013-01-04 18:53:00,36.8,29.3,29.90,SW,226,6.0,21.0,74,0.00,,---,0.01,VWS V14.01,2013-01-04 23:53:00,
2013-01-04 18:58:00,36.9,29.1,29.90,SW,229,8.0,21.0,73,0.00,,---,0.01,VWS V14.01,2013-01-04 23:58:00,
2013-01-04 19:03:00,37.0,29.2,29.90,SW,235,7.0,15.0,73,0.00,,---,0.01,VWS V14.01,2013-01-05 00:03:00,
2013-01-04 19:08:00,37.0,29.2,29.90,West,261,9.0,23.0,73,0.00,,---,0.01,VWS V14.01,2013-01-05 00:08:00,
2013-01-04 19:13:00,37.1,29.3,29.90,WSW,240,4.0,23.0,73,0.00,,---,0.01,VWS V14.01,2013-01-05 00:13:00,
2013-01-04 19:18:00,37.1,28.9,29.90,SW,234,20.0,23.0,72,0.00,,---,0.01,VWS V14.01,2013-01-05 00:18:00,
2013-01-04 19:23:00,37.2,29.0,29.90,WSW,245,9.0,23.0,72,0.00,,---,0.01,VWS V14.01,2013-01-05 00:23:00,
2013-01-04 19:28:00,37.2,28.7,29.90,SW,221,7.0,23.0,71,0.00,,---,0.01,VWS V14.01,2013-01-05 00:28:00,
2013-01-04 19:33:00,37.1,28.9,29.90,SW,236,9.0,13.0,72,0.00,,---,0.01,VWS V14.01,2013-01-05 00:33:00,
2013-01-04 19:38:00,37.1,28.9,29.90,WSW,242,6.0,16.0,72,0.00,,---,0.01,VWS V14.01,2013-01-05 00:38:00,
2013-01-04 19:43:00,37.2,29.0,29.90,WSW,249,9.0,18.0,72,0.00,,---,0.01,VWS V14.01,2013-01-05 00:43:00,
2013-01-04 19:48:00,37.3,28.8,29.90,SW,232,8.0,18.0,71,0.00,,---,0.01,VWS V14.01,2013-01-05 00:48:00,
2013-01-04 19:53:00,37.2,28.7,29.90,SW,220,16.0,18.0,71,0.00,,---,0.01,VWS V14.01,2013-01-05 00:53:00,
2013-01-04 19:58:00,37.2,28.7,29.91,WSW,237,7.0,18.0,71,0.00,,---,0.01,VWS V14.01,2013-01-05 00:58:00,
2013-01-04 20:03:00,37.2,28.3,29.91,WSW,251,9.0,20.0,70,0.00,,---,0.01,VWS V14.01,2013-01-05 01:03:00,
2013-01-04 20:08:00,37.2,28.3,29.91,WSW,243,11.0,21.0,70,0.00,,---,0.01,VWS V14.01,2013-01-05 01:08:00,
2013-01-04 20:13:00,37.2,28.3,29.90,SW,234,8.0,21.0,70,0.00,,---,0.01,VWS V14.01,2013-01-05 01:13:00,
2013-01-04 20:18:00,37.1,28.2,29.91,SW,232,12.0,21.0,70,0.00,,---,0.01,VWS V14.01,2013-01-05 01:18:00,
2013-01-04 20:23:00,37.0,28.1,29.91,SW,231,5.0,21.0,70,0.00,,---,0.01,VWS V14.01,2013-01-05 01:23:00,
2013-01-04 20:28:00,37.0,27.8,29.91,West,280,4.0,21.0,69,0.00,,---,0.01,VWS V14.01,2013-01-05 01:28:00,
2013-01-04 20:33:00,36.9,28.0,29.90,SW,231,5.0,22.0,70,0.00,,---,0.01,VWS V14.01,2013-01-05 01:33:00,
2013-01-04 20:38:00,36.9,28.0,29.90,WSW,237,3.0,22.0,70,0.00,,---,0.01,VWS V14.01,2013-01-05 01:38:00,
2013-01-04 20:43:00,36.8,28.0,29.90,WSW,242,8.0,23.0,70,0.00,,---,0.01,VWS V14.01,2013-01-05 01:43:00,
2013-01-04 20:48:00,36.7,27.9,29.90,WSW,255,0.0,23.0,70,0.00,,---,0.01,VWS V14.01,2013-01-05 01:48:00,
2013-01-04 20:53:00,36.6,28.1,29.90,SW,229,5.0,23.0,71,0.00,,---,0.01,VWS V14.01,2013-01-05 01:53:00,
2013-01-04 20:58:00,36.5,27.7,29.90,WSW,239,6.0,23.0,70,0.00,,---,0.01,VWS V14.01,2013-01-05 01:58:00,
2013-01-04 21:03:00,36.5,27.7,29.90,SW,235,5.0,15.0,70,0.00,,---,0.01,VWS V14.01,2013-01-05 02:03:00,
2013-01-04 21:08:00,36.4,27.9,29.90,WSW,242,10.0,16.0,71,0.00,,---,0.01,VWS V14.01,2013-01-05 02:08:00,
2013-01-04 21:13:00,36.4,27.9,29.90,WSW,242,18.0,18.0,71,0.00,,---,0.01,VWS V14.01,2013-01-05 02:13:00,
2013-01-04 21:18:00,36.3,27.5,29.90,WSW,243,7.0,19.0,70,0.00,,---,0.01,VWS V14.01,2013-01-05 02:18:00,
2013-01-04 21:23:00,36.3,27.5,29.90,SW,226,12.0,19.0,70,0.00,,---,0.01,VWS V14.01,2013-01-05 02:23:00,
2013-01-04 21:28:00,36.3,27.5,29.91,SW,215,11.0,19.0,70,0.00,,---,0.01,VWS V14.01,2013-01-05 02:28:00,
2013-01-04 21:33:00,36.2,27.4,29.91,WSW,242,5.0,14.0,70,0.00,,---,0.01,VWS V14.01,2013-01-05 02:33:00,
2013-01-04 21:38:00,36.2,27.4,29.90,WSW,252,8.0,16.0,70,0.00,,---,0.01,VWS V14.01,2013-01-05 02:38:00,
2013-01-04 21:43:00,36.1,27.3,29.90,WSW,254,7.0,19.0,70,0.00,,---,0.01,VWS V14.01,2013-01-05 02:43:00,
2013-01-04 21:48:00,36.0,27.2,29.90,SW,236,6.0,19.0,70,0.00,,---,0.01,VWS V14.01,2013-01-05 02:48:00,
2013-01-04 21:53:00,36.0,27.2,29.90,SW,230,4.0,19.0,70,0.00,,---,0.01,VWS V14.01,2013-01-05 02:53:00,
2013-01-04 21:58:00,35.9,27.4,29.90,WSW,242,6.0,19.0,71,0.00,,---,0.01,VWS V14.01,2013-01-05 02:58:00,
2013-01-04 22:03:00,35.7,27.2,29.90,WSW,242,6.0,10.0,71,0.00,,---,0.01,VWS V14.01,2013-01-05 03:03:00,
2013-01-04 22:08:00,35.6,27.1,29.90,WSW,241,6.0,11.0,71,0.00,,---,0.01,VWS V14.01,2013-01-05 03:08:00,
2013-01-04 22:13:00,35.6,27.1,29.90,WSW,254,7.0,11.0,71,0.00,,---,0.01,VWS V14.01,2013-01-05 03:13:00,
2013-01-04 22:18:00,35.5,27.0,29.90,WSW,240,7.0,11.0,71,0.00,,---,0.01,VWS V14.01,2013-01-05 03:18:00,
2013-01-04 22:23:00,35.4,27.0,29.90,WSW,244,4.0,13.0,71,0.00,,---,0.01,VWS V14.01,2013-01-05 03:23:00,
2013-01-04 22:28:00,35.4,27.0,29.91,WSW,243,6.0,13.0,71,0.00,,---,0.01,VWS V14.01,2013-01-05 03:28:00,
2013-01-04 22:33:00,35.4,26.6,29.91,SW,236,11.0,11.0,70,0.00,,---,0.01,VWS V14.01,2013-01-05 03:33:00,
2013-01-04 22:38:00,35.4,26.6,29.91,SW,235,5.0,13.0,70,0.00,,---,0.01,VWS V14.01,2013-01-05 03:38:00,
2013-01-04 22:43:00,35.3,26.5,29.91,WSW,247,6.0,15.0,70,0.00,,---,0.01,VWS V14.01,2013-01-05 03:43:00,
2013-01-04 22:48:00,35.3,26.5,29.91,WSW,250,6.0,15.0,70,0.00,,---,0.01,VWS V14.01,2013-01-05 03:48:00,
2013-01-04 22:53:00,35.3,26.9,29.91,WNW,302,3.0,15.0,71,0.00,,---,0.01,VWS V14.01,2013-01-05 03:53:00,
2013-01-04 22:58:00,35.3,26.9,29.92,WSW,243,8.0,15.0,71,0.00,,---,0.01,VWS V14.01,2013-01-05 03:58:00,
2013-01-04 23:03:00,35.2,26.8,29.91,SW,228,3.0,11.0,71,0.00,,---,0.01,VWS V14.01,2013-01-05 04:03:00,
2013-01-04 23:08:00,35.2,27.1,29.92,WSW,257,7.0,13.0,72,0.00,,---,0.01,VWS V14.01,2013-01-05 04:08:00,
2013-01-04 23:13:00,35.1,27.0,29.91,WSW,238,0.0,13.0,72,0.00,,---,0.01,VWS V14.01,2013-01-05 04:13:00,
2013-01-04 23:18:00,35.0,26.9,29.91,WSW,243,6.0,13.0,72,0.00,,---,0.01,VWS V14.01,2013-01-05 04:18:00,
2013-01-04 23:23:00,34.9,26.8,29.91,WSW,254,2.0,13.0,72,0.00,,---,0.01,VWS V14.01,2013-01-05 04:23:00,
2013-01-04 23:28:00,34.8,26.7,29.91,WSW,238,6.0,13.0,72,0.00,,---,0.01,VWS V14.01,2013-01-05 04:28:00,
2013-01-04 23:33:00,34.8,26.7,29.91,SW,234,10.0,10.0,72,0.00,,---,0.01,VWS V14.01,2013-01-05 04:33:00,
2013-01-04 23:38:00,34.7,27.0,29.91,West,269,3.0,10.0,73,0.00,,---,0.01,VWS V14.01,2013-01-05 04:38:00,
2013-01-04 23:43:00,34.6,26.9,29.91,WSW,240,12.0,13.0,73,0.00,,---,0.01,VWS V14.01,2013-01-05 04:43:00,
2013-01-04 23:48:00,34.5,26.8,29.91,SW,234,0.0,13.0,73,0.00,,---,0.01,VWS V14.01,2013-01-05 04:48:00,
2013-01-04 23:54:00,34.4,26.7,29.91,WSW,243,5.0,13.0,73,0.00,,---,0.01,VWS V14.01,2013-01-05 04:54:00,
2013-01-04 23:59:00,34.4,26.7,29.91,WSW,246,5.0,14.0,73,0.00,,---,0.01,VWS V14.01,2013-01-05 04:59:00,